[[{"header":{"parameterUnit":"m.s-1","parameterCategory":1,"la1":30.2992,"la2":30.254,"lo1":-89.0895,"lo2":-89.0443,"dy":0.0025,"dx":0.0025,"nx":19,"ny":19,"refTime":"2026-05-09T21:00:00:Z","depth":0,"parameterNumber":2,"parameterNumberName":"U-component_of_WINDS"},"data":[0,0,0,0.7622,0.7622,0.7601,0.7601,0.7582,0.7582,0,0,0,0,0,0,0,0,0,0,0,0.7634,0.7634,0.7622,0.7622,0.7601,0.7601,0.7582,0.7582,0,0,0,0,0,0,0,0,0,0,0,0.7634,0.7634,0.7634,0.7622,0.7601,0.7601,0.7582,0.7595,0,0,0,0,0,0,0,0,0,0,0.7614,0.763,0.7634,0.7634,0.7622,0.7601,0.7601,0.7595,0.7594,0.7595,0,0.7598,0,0.759,0.7581,0.7581,0,0,0,0.7618,0.7631,0.762,0.7634,0.7621,0.7601,0.7609,0.7594,0.7593,0.7593,0.7597,0.7596,0.7589,0.7581,0.7581,0.7601,0.7602,0,0,0.7619,0.7633,0.7621,0.762,0.7624,0.761,0.7609,0.7593,0.7599,0.7597,0.7596,0.7589,0.7581,0.7581,0.7601,0.7602,0,0,0,0.7625,0.7634,0.7623,0.7621,0.7616,0.7609,0.7608,0.7599,0.7595,0.7596,0.7589,0.7581,0.7581,0.7601,0.7601,0.7629,0,0,0,0.7625,0.7637,0.7624,0.7632,0.7617,0.7608,0.7614,0.7596,0.7594,0.7589,0.7581,0.7581,0.76,0.7601,0.7627,0.7639,0,0,0,0.7633,0.7638,0.7637,0.7633,0.7625,0.7608,0.7602,0.7595,0.759,0.7581,0.7581,0.76,0.7601,0.7626,0.7637,0.7648,0,0,0,0.7645,0.7661,0.7637,0.7653,0.7625,0.7625,0.7602,0.7601,0.7597,0.7581,0.7601,0.7601,0.7625,0.7635,0.7647,0.7659,0.7666,0,0,0.7673,0.7665,0.7673,0.7651,0.7659,0.7627,0.7639,0.7622,0.7608,0.7604,0.7605,0.7628,0.7637,0.7648,0.7701,0.7706,0,0,0,0.7687,0.7693,0.7692,0.7689,0.7677,0.7667,0.7647,0.764,0.7636,0.7609,0.7635,0.764,0.7645,0.7651,0.7655,0.7659,0.7605,0.7605,0.7604,0.7745,0.7728,0.7739,0.7719,0.7717,0.7696,0.7692,0.768,0.7662,0.7669,0.7667,0.7702,0.7708,0.7712,0.7716,0.7673,0.7673,0.7673,0.7673,0.7784,0.7789,0.7766,0.7769,0.775,0.7752,0.7733,0.7721,0.772,0.7701,0.7706,0.7686,0.7718,0.7721,0.7675,0.7675,0.7675,0.7674,0.7674,0.782,0.7819,0.7812,0.7805,0.7803,0.7782,0.7782,0.7764,0.7748,0.7753,0.7748,0.7748,0.7745,0.7752,0.7752,0.7752,0.7752,0.7752,0.7753,0.7859,0.785,0.7852,0.7841,0.7837,0.7829,0.7809,0.7804,0.7794,0.7782,0.7781,0.7763,0.7725,0.7716,0.7754,0.7754,0.7754,0.7754,0.7753,0.7903,0.7891,0.7895,0.789,0.7876,0.7874,0.7852,0.7844,0.7837,0.7838,0.7819,0.7794,0.7784,0.7781,0.7772,0.7823,0.7823,0.7823,0.7823,0.7933,0.7927,0.7926,0.7921,0.7913,0.7894,0.7899,0.7883,0.7865,0.786,0.785,0.7838,0.7835,0.7827,0.7822,0.7814,0.7875,0.7875,0.7875,0.7958,0.7951,0.7958,0.794,0.7928,0.7917,0.792,0.7914,0.7891,0.7876,0.7855,0.7853,0.7833,0.7828,0.7812,0.7805,0.779,0,0]},{"header":{"parameterUnit":"m.s-1","parameterCategory":1,"la1":30.2992,"la2":30.254,"lo1":-89.0895,"lo2":-89.0443,"dy":0.0025,"dx":0.0025,"nx":19,"ny":19,"refTime":"2026-05-09T21:00:00:Z","depth":0,"parameterNumber":3,"parameterNumberName":"V-component_of_WINDS"},"data":[0,0,0,0.3911,0.3913,0.4016,0.4016,0.4138,0.4139,0,0,0,0,0,0,0,0,0,0,0,0.3876,0.3876,0.3911,0.3913,0.4016,0.4016,0.4138,0.4139,0,0,0,0,0,0,0,0,0,0,0,0.3875,0.3876,0.3877,0.3913,0.4016,0.4016,0.4138,0.4063,0,0,0,0,0,0,0,0,0,0,0.3965,0.3928,0.3876,0.3877,0.3914,0.4015,0.4016,0.406,0.4068,0.4088,0,0.4105,0,0.4124,0.4147,0.4147,0,0,0,0.3916,0.3921,0.3953,0.3877,0.3915,0.4015,0.397,0.4064,0.4073,0.4098,0.4107,0.4112,0.4126,0.4147,0.4148,0.4254,0.4254,0,0,0.3911,0.3891,0.3947,0.3959,0.3944,0.3967,0.3973,0.407,0.4078,0.4107,0.4115,0.4128,0.4148,0.4149,0.4254,0.4254,0,0,0,0.3892,0.3887,0.3917,0.3954,0.3973,0.397,0.3977,0.4073,0.4085,0.4116,0.4129,0.4149,0.415,0.4254,0.4254,0.4253,0,0,0,0.3889,0.3876,0.3914,0.3904,0.3971,0.4025,0.3978,0.4078,0.409,0.4129,0.4149,0.4151,0.4253,0.4254,0.4252,0.4256,0,0,0,0.387,0.3874,0.3888,0.3902,0.3946,0.4024,0.4041,0.4081,0.4098,0.4147,0.4152,0.4253,0.4254,0.4252,0.4255,0.4279,0,0,0,0.3845,0.3885,0.3887,0.3937,0.3945,0.4022,0.404,0.4099,0.4141,0.4149,0.4253,0.4254,0.4252,0.4254,0.4278,0.4296,0.4301,0,0,0.3884,0.3889,0.3919,0.3925,0.3997,0.4008,0.408,0.4137,0.4158,0.4221,0.4224,0.4253,0.4255,0.4279,0.4338,0.4343,0,0,0,0.3925,0.3947,0.397,0.401,0.4055,0.4093,0.4141,0.4162,0.4216,0.4187,0.4268,0.427,0.4285,0.4294,0.4298,0.4312,0.4257,0.4257,0.4257,0.3953,0.398,0.4032,0.4071,0.4109,0.4158,0.4192,0.4228,0.4243,0.4261,0.428,0.4313,0.4324,0.4327,0.4341,0.4291,0.4291,0.4291,0.4291,0.4013,0.4049,0.4068,0.4126,0.4153,0.4202,0.425,0.4259,0.4308,0.4301,0.4315,0.4306,0.433,0.4344,0.4291,0.4291,0.4291,0.4291,0.4291,0.4035,0.4057,0.4082,0.4143,0.4186,0.4224,0.427,0.4293,0.4314,0.4329,0.4351,0.4351,0.4355,0.4338,0.4338,0.4338,0.4338,0.4338,0.4338,0.4048,0.4077,0.4113,0.4164,0.4193,0.4234,0.4283,0.4312,0.4349,0.4362,0.4362,0.4375,0.4328,0.4316,0.434,0.434,0.4339,0.4339,0.4339,0.41,0.4092,0.4149,0.4178,0.424,0.4281,0.431,0.4366,0.4393,0.4415,0.4425,0.4386,0.4392,0.4389,0.4379,0.4419,0.4419,0.4419,0.4419,0.4119,0.4124,0.4188,0.4233,0.4279,0.4311,0.4373,0.4412,0.445,0.4468,0.4465,0.4454,0.445,0.4458,0.4454,0.4446,0.4501,0.4501,0.4501,0.4153,0.4164,0.4213,0.4252,0.4302,0.4344,0.4403,0.4453,0.4494,0.4505,0.4483,0.4479,0.4461,0.4454,0.4464,0.4457,0.4442,0,0]}]]